Regional Weather Roundup
Issued by NWS

Home | Current Version | Previous Version | Graphics & Text | Print | Product List | Glossary On
Versions: 1 2 3 4 5 6 7 8 9 10 11 12 13 14 15 16 17 18 19 20 21 22 23 24 25 26 27 28 29 30 31 32 33 34 35 36 37 38 39 40 41 42 43 44 45 46 47 48 49 50
000
ASUS43 KLSX 250407
RWRMO

WEATHER SUMMARY FOR MISSOURI
NATIONAL WEATHER SERVICE SPRINGFIELD MO
1100 PM CDT SUN SEP 24 2017

NOTE: "FAIR" INDICATES FEW OR NO CLOUDS BELOW 12,000 FEET WITH NO
       SIGNIFICANT WEATHER AND/OR OBSTRUCTIONS TO VISIBILITY.
       CURRENT SKY AND/OR WEATHER CONDITIONS ARE NOT AVAILABLE FOR
       CHILLICOTHE AND FARMINGTON.

MOZ001>031-035>038-043-044-053-054-250500-
...NORTHERN AND WESTERN MISSOURI...

CITY           SKY/WX    TMP DP  RH WIND       PRES   REMARKS
KANSAS CTY INT CLEAR     75  67  76 S9        29.94S
KANSAS C DTWN  CLEAR     81  68  64 SE10G20   29.93S
LEE`S SUMMIT   CLEAR     76  69  79 S10       29.95S
ST JOSEPH      CLEAR     76  68  76 S6        29.93R
CHILLICOTHE      N/A     69  67  93 CALM      29.96R
KIRKSVILLE     CLEAR     69  62  78 SE3       29.97F

$$
MOZ066>068-077>081-088>096-101>105-250500-
...SOUTHWEST MISSOURI...

CITY           SKY/WX    TMP DP  RH WIND       PRES   REMARKS
SPRINGFIELD    CLEAR     69  65  86 SE8       29.98S
JOPLIN         CLEAR     74  66  76 SE6       29.96R
BRANSON        CLEAR     68  66  94 CALM      30.01S

$$
MOZ032>034-039>042-045>050-055>058-069>072-250500-
...CENTRAL MISSOURI...

CITY           SKY/WX    TMP DP  RH WIND       PRES   REMARKS
COLUMBIA       CLEAR     74  67  78 SW6       29.97R
JEFFERSON CITY CLOUDY    74  65  73 E3        29.95F
ROLLA          CLEAR     69  63  81 S7        30.00F
SEDALIA        CLOUDY    74  66  76 S7        29.96F
WHITEMAN AFB   CLEAR     71  71 100 SW5       29.94S
WARRENSBURG    PTCLDY    72  63  73 S5        29.94F
OSAGE BEACH    CLEAR     70  66  87 E5        29.99R

$$
MOZ051-052-059>065-250500-
...EAST CENTRAL MISSOURI...

CITY           SKY/WX    TMP DP  RH WIND       PRES   REMARKS
ST LOUIS INTL  CLEAR     80  64  58 SW6       29.98F
SPIRIT OF STL  CLEAR     74  67  78 CALM      29.96F
ST CHARLES     CLEAR     70  66  87 N3        29.96F

$$
MOZ072>076-082>087-097>100-106>115-250500-
...SOUTH CENTRAL AND SOUTHEAST MISSOURI...

CITY           SKY/WX    TMP DP  RH WIND       PRES   REMARKS
CAPE GIRARDEAU CLEAR     67  64  90 CALM      29.98F
FARMINGTON     CLEAR     68  65  90 SE3       30.02S
POPLAR BLUFF   CLEAR     67  65  93 NE3       29.98F
WEST PLAINS    CLEAR     67  63  87 CALM      30.03R

$$



USA.gov is the U.S. government's official web portal to all federal, state and local government web resources and services.